This is the latest recevied weather packets stored in our database for station/object F4FSZ-11. If no packets are shown the sender has not sent any weather packets the latest 10 day(s).
| Time | Temp. | Humidity | Pressure | Rain* | Wind** | Luminosity | Snow |
|---|---|---|---|---|---|---|---|
| 1777286876 | 23.89° C | 37% | 1013.3 hPa | - | - | - | - |
| 1777285976 | 22.22° C | 38% | 1013.4 hPa | - | - | - | - |
| 1777285076 | 22.78° C | 40% | 1013.4 hPa | - | - | - | - |
| 1777284176 | 22.22° C | 43% | 1013.4 hPa | - | - | - | - |
| 1777283275 | 20.56° C | 47% | 1013.7 hPa | - | - | - | - |
| 1777282375 | 21.11° C | 51% | 1013.9 hPa | - | - | - | - |
| 1777281475 | 18.89° C | 52% | 1013.9 hPa | - | - | - | - |
| 1777280575 | 18.89° C | 52% | 1013.9 hPa | - | - | - | - |
| 1777279675 | 17.78° C | 53% | 1013.9 hPa | - | - | - | - |
| 1777278775 | 17.22° C | 59% | 1014 hPa | - | - | - | - |
| 1777277875 | 15.56° C | 63% | 1014 hPa | - | - | - | - |
| 1777276975 | 15° C | 65% | 1014 hPa | - | - | - | - |
| 1777276075 | 13.89° C | 67% | 1014 hPa | - | - | - | - |
| 1777275175 | 12.78° C | 71% | 1014 hPa | - | - | - | - |
| 1777274275 | 11.67° C | 76% | 1014.1 hPa | - | - | - | - |
| 1777273375 | 11.11° C | 78% | 1014.1 hPa | - | - | - | - |
| 1777272475 | 10° C | 82% | 1014.3 hPa | - | - | - | - |
| 1777271575 | 8.89° C | 80% | 1014.4 hPa | - | - | - | - |
| 1777270675 | 7.78° C | 85% | 1014.2 hPa | - | - | - | - |
| 1777269774 | 6.67° C | 86% | 1014.1 hPa | - | - | - | - |
| 1777268874 | 6.11° C | 92% | 1014.2 hPa | - | - | - | - |
| 1777267974 | 5.56° C | 98% | 1014.1 hPa | - | - | - | - |
| 1777267074 | 5° C | 96% | 1013.9 hPa | - | - | - | - |
| 1777266174 | 4.44° C | 97% | 1014 hPa | - | - | - | - |
| 1777265274 | 4.44° C | 97% | 1014 hPa | - | - | - | - |
* Rain since midnight (hover to see other rain measurements)
** Current wind speed in m/s (hover to see current wind gust speed)